Oxford, MS

2:09 PM CST on November 19, 2019 (GMT -0600)
University-Oxford

Weather History for KUOX - July, 2019

Change the Weather History Date:

Monday, July 15, 2019

  Actual Average Record
Temperature  
Mean Temperature 74 °F -  
Max Temperature 78 °F 91 °F 103 °F (1980)
Min Temperature 69 °F 68 °F 50 °F (1967)
Cooling Degree Days 8    
Growing Degree Days 24 (Base 50)    
Moisture  
Dew Point 72 °F    
Average Humidity 96    
Maximum Humidity 100    
Minimum Humidity 78    
Precipitation  
Precipitation 0.00 in - - ()
Sea Level Pressure  
Sea Level Pressure 30.01 in    
Wind  
Wind Speed 9 mph (SSE)    
Max Wind Speed 28 mph    
Max Gust Speed 36 mph    
Visibility 7 miles    
Events Rain    
Averages and records for this station are not official NWS values.
T = Trace of Precipitation, MM = Missing Value Source: NWS Daily Summary

Daily Weather History Graph

Daily Weather History Graph

Search for Another Location

Airport or City:

Astronomy

Jul. 15, 2019 Rise Set
Actual Time 5:56 AM CDT 8:11 PM CDT
Civil Twilight 5:28 AM CDT 8:39 PM CDT
Nautical Twilight 4:53 AM CDT 9:14 PM CDT
Astronomical Twilight 4:15 AM CDT 9:52 PM CDT
Moon 7:27 PM CDT (7/15) 4:45 AM CDT (7/15)
Length of Visible Light 15h 11m
Length of Day
14h 14m
Waxing Gibbous, 99% of the Moon is Illuminated
Jul 15
Waxing Gibbous
Jul 16
Full
Jul 24
Last Quarter
Jul 31
New
Aug 7
First Quarter

Hourly Weather History & Observations

Time (CDT) Temp. Dew Point Humidity Pressure Visibility Wind Dir Wind Speed Gust Speed Precip Events Conditions
12:15 AM 69.8 °F 69.8 °F 100% 30.07 in 2.0 mi ESE 8.1 mph 18.4 mph N/A   Overcast
12:35 AM 69.8 °F 69.8 °F 100% 30.06 in 2.5 mi SE 6.9 mph - N/A Rain Rain
12:55 AM 69.8 °F 69.8 °F 100% 30.05 in 6.0 mi Variable 6.9 mph 13.8 mph N/A   Light Drizzle
1:15 AM 69.8 °F 69.8 °F 100% 30.05 in 8.0 mi East 9.2 mph 16.1 mph N/A   Light Drizzle
1:35 AM 69.8 °F 69.8 °F 100% 30.04 in 9.0 mi ESE 8.1 mph 13.8 mph N/A   Overcast
1:55 AM 69.8 °F 69.8 °F 100% 30.03 in 10.0 mi ESE 8.1 mph 19.6 mph N/A   Overcast
2:15 AM 69.8 °F 69.8 °F 100% 30.02 in 10.0 mi ESE 8.1 mph 13.8 mph N/A   Overcast
2:35 AM 69.8 °F 69.8 °F 100% 30.02 in 6.0 mi Variable 6.9 mph 15.0 mph N/A   Light Drizzle
2:55 AM 69.8 °F 69.8 °F 100% 30.03 in 2.5 mi SSE 9.2 mph 17.3 mph N/A Rain Rain
3:15 AM 69.8 °F 69.8 °F 100% 30.00 in 8.0 mi ESE 9.2 mph 21.9 mph N/A   Overcast
3:35 AM 69.8 °F 69.8 °F 100% 29.99 in 8.0 mi ESE 9.2 mph 16.1 mph N/A   Overcast
3:55 AM 69.8 °F 69.8 °F 100% 29.99 in 10.0 mi ESE 9.2 mph 20.7 mph N/A   Mostly Cloudy
4:15 AM 69.8 °F 69.8 °F 100% 29.98 in 8.0 mi ESE 11.5 mph 18.4 mph N/A   Overcast
4:35 AM 69.8 °F 69.8 °F 100% 29.99 in 4.0 mi ESE 8.1 mph 17.3 mph N/A Rain Light Rain
4:55 AM 69.8 °F 69.8 °F 100% 29.99 in 7.0 mi SE 8.1 mph 17.3 mph N/A   Light Drizzle
5:15 AM 69.8 °F 69.8 °F 100% 29.99 in 6.0 mi SE 9.2 mph 15.0 mph N/A   Light Drizzle
5:35 AM 69.8 °F 69.8 °F 100% 30.00 in 2.5 mi SE 9.2 mph 15.0 mph N/A Rain Rain
5:55 AM 69.8 °F 69.8 °F 100% 30.00 in 3.0 mi SE 9.2 mph - N/A Rain Light Rain
6:35 AM 69.8 °F 69.8 °F 100% 30.01 in 9.0 mi ESE 8.1 mph 13.8 mph N/A   Overcast
6:55 AM 69.8 °F 69.8 °F 100% 30.00 in 9.0 mi SE 11.5 mph 18.4 mph N/A   Overcast
7:15 AM 69.8 °F 69.8 °F 100% 30.01 in 9.0 mi SE 11.5 mph 18.4 mph N/A   Mostly Cloudy
7:35 AM 71.6 °F 71.6 °F 100% 30.01 in 5.0 mi SE 6.9 mph 15.0 mph N/A   Light Drizzle
7:55 AM 69.8 °F 69.8 °F 100% 30.02 in 4.0 mi SE 9.2 mph 19.6 mph N/A Rain Light Rain
8:15 AM 71.6 °F 71.6 °F 100% 30.02 in 3.0 mi SE 10.4 mph 19.6 mph N/A   Light Drizzle
8:35 AM 71.6 °F 71.6 °F 100% 30.02 in 4.0 mi SSE 9.2 mph 17.3 mph N/A Rain Light Rain
8:55 AM 71.6 °F 71.6 °F 100% 30.03 in 1.8 mi SE 12.7 mph 21.9 mph N/A Rain Light Rain
9:15 AM 71.6 °F 71.6 °F 100% 30.02 in 2.5 mi SSE 9.2 mph 17.3 mph N/A Rain Light Rain
9:35 AM 71.6 °F 71.6 °F 100% 30.02 in 2.0 mi SE 10.4 mph 19.6 mph N/A   Light Drizzle
9:55 AM 71.6 °F 71.6 °F 100% 30.02 in 7.0 mi SE 11.5 mph 19.6 mph N/A   Light Drizzle
10:15 AM 71.6 °F 71.6 °F 100% 30.02 in 2.5 mi SE 8.1 mph 16.1 mph N/A Rain Light Rain
10:35 AM 71.6 °F 71.6 °F 100% 30.03 in 3.0 mi SSE 12.7 mph 21.9 mph N/A   Light Drizzle
10:55 AM 71.6 °F 71.6 °F 100% 30.02 in 8.0 mi SSE 10.4 mph 16.1 mph N/A   Light Drizzle
11:15 AM 73.4 °F 73.4 °F 100% 30.02 in 9.0 mi SSE 10.4 mph 18.4 mph N/A   Light Drizzle
11:35 AM 73.4 °F 73.4 °F 100% 30.02 in 9.0 mi SE 9.2 mph 18.4 mph N/A   Mostly Cloudy
11:55 AM 73.4 °F 73.4 °F 100% 30.02 in 9.0 mi SSE 12.7 mph 24.2 mph N/A   Overcast
12:15 PM 73.4 °F 73.4 °F 100% 30.02 in 8.0 mi South 13.8 mph 21.9 mph N/A   Light Drizzle
12:35 PM 73.4 °F 73.4 °F 100% 30.02 in 3.0 mi South 13.8 mph 25.3 mph N/A   Light Drizzle
12:55 PM 73.4 °F 73.4 °F 100% 30.03 in 4.0 mi South 16.1 mph 24.2 mph N/A Rain Light Rain
1:15 PM 73.4 °F 73.4 °F 100% 30.02 in 3.0 mi South 9.2 mph 20.7 mph N/A Rain Light Rain
1:35 PM 73.4 °F 73.4 °F 100% 30.01 in 8.0 mi South 8.1 mph - N/A   Light Drizzle
1:55 PM 73.4 °F 73.4 °F 100% 30.00 in 9.0 mi SSE 8.1 mph 17.3 mph N/A   Mostly Cloudy
2:15 PM 75.2 °F 75.2 °F 100% 30.00 in 9.0 mi South 15.0 mph 21.9 mph N/A   Overcast
2:35 PM 75.2 °F 75.2 °F 100% 30.00 in 9.0 mi South 13.8 mph - N/A   Overcast
2:55 PM 75.2 °F 73.4 °F 94% 30.00 in 10.0 mi South 8.1 mph 17.3 mph N/A   Mostly Cloudy
3:15 PM 77.0 °F 73.4 °F 89% 30.00 in 9.0 mi South 10.4 mph 17.3 mph N/A   Overcast
3:35 PM 77.0 °F 73.4 °F 89% 30.00 in 10.0 mi South 10.4 mph 16.1 mph N/A   Overcast
3:55 PM 73.4 °F 69.8 °F 88% 30.01 in 2.0 mi SSW 27.6 mph 35.7 mph N/A Rain Rain
4:15 PM 73.4 °F 71.6 °F 94% 30.00 in 10.0 mi South 9.2 mph 21.9 mph N/A   Mostly Cloudy
4:35 PM 75.2 °F 73.4 °F 94% 29.99 in 5.0 mi South 10.4 mph - N/A   Light Drizzle
4:55 PM 75.2 °F 75.2 °F 100% 29.98 in 8.0 mi SSE 8.1 mph - N/A   Clear
5:15 PM 77.0 °F 75.2 °F 94% 29.98 in 9.0 mi SSE 6.9 mph 15.0 mph N/A   Clear
5:35 PM 77.0 °F 73.4 °F 89% 29.97 in 9.0 mi SSE 8.1 mph 16.1 mph N/A   Scattered Clouds
5:55 PM 77.0 °F 73.4 °F 89% 29.97 in 9.0 mi SSE 9.2 mph - N/A   Mostly Cloudy
6:15 PM 78.8 °F 73.4 °F 83% 29.97 in 8.0 mi South 13.8 mph 24.2 mph N/A   Mostly Cloudy
6:35 PM 78.8 °F 73.4 °F 83% 29.97 in 9.0 mi SSE 8.1 mph 16.1 mph N/A   Partly Cloudy
6:55 PM 78.8 °F 71.6 °F 78% 29.96 in 9.0 mi South 13.8 mph 20.7 mph N/A   Partly Cloudy
7:15 PM 77.0 °F 71.6 °F 83% 29.97 in 10.0 mi South 10.4 mph 18.4 mph N/A   Scattered Clouds
7:35 PM 77.0 °F 71.6 °F 83% 29.97 in 9.0 mi Variable 6.9 mph 15.0 mph N/A   Mostly Cloudy
7:55 PM 77.0 °F 71.6 °F 83% 29.97 in 9.0 mi SSE 9.2 mph 16.1 mph N/A   Mostly Cloudy
8:15 PM 75.2 °F 71.6 °F 89% 29.97 in 9.0 mi SSE 8.1 mph - N/A   Mostly Cloudy
8:35 PM 75.2 °F 71.6 °F 89% 29.98 in 10.0 mi SSE 9.2 mph 15.0 mph N/A   Partly Cloudy
8:55 PM 75.2 °F 71.6 °F 89% 29.99 in 10.0 mi SE 8.1 mph 13.8 mph N/A   Partly Cloudy
9:15 PM 73.4 °F 71.6 °F 94% 29.99 in 10.0 mi SE 9.2 mph - N/A   Mostly Cloudy
9:35 PM 73.4 °F 71.6 °F 94% 30.00 in 10.0 mi Variable 6.9 mph - N/A   Overcast
9:55 PM 73.4 °F 71.6 °F 94% 30.01 in 10.0 mi SSE 8.1 mph - N/A   Overcast
10:15 PM 73.4 °F 71.6 °F 94% 30.01 in 10.0 mi SSE 9.2 mph - N/A   Overcast
10:55 PM 73.4 °F 71.6 °F 94% 30.02 in 10.0 mi SSE 11.5 mph 17.3 mph N/A   Overcast
11:15 PM 73.4 °F 71.6 °F 94% 30.02 in 10.0 mi South 10.4 mph 18.4 mph N/A   Overcast
11:35 PM 73.4 °F 71.6 °F 94% 30.03 in 10.0 mi SSE 10.4 mph 16.1 mph N/A   Overcast
11:55 PM 73.4 °F 71.6 °F 94% 30.03 in 10.0 mi SSE 9.2 mph 16.1 mph N/A   Overcast